DW7603 Weather Reports


time (UTC)temp
C
wind
direction
speed
KPH
gust
KPH
rain 1hr
cm
rain 24hr
cm
rain mn
cm
humidity
%
barometer
mb
20260505200058 14 42 3.2 16.1 0.00 0.00 0.00 48 1003.6
20260505194531 13 355 9.7 25.7 0.00 0.00 0.00 50 1003.8
20260505193009 13 32 14.5 25.7 0.00 0.00 0.00 48 1003.8
20260505191554 12 342 12.9 24.1 0.00 0.00 0.00 49 1003.9
20260505190042 12 306 16.1 27.4 0.00 0.00 0.00 51 1004.1
20260505184515 12 311 16.1 25.7 0.00 0.00 0.00 51 1004.1
20260505183053 13 263 12.9 24.1 0.00 0.00 0.00 46 1004.0
20260505181536 13 5 6.4 20.9 0.00 0.00 0.00 47 1003.9
20260505180015 13 337 9.7 22.5 0.00 0.00 0.00 45 1003.7
20260505174602 13 343 16.1 24.1 0.00 0.00 0.00 46 1003.4
20260505173039 12 360 8.0 19.3 0.00 0.00 0.00 50 1003.3
20260505171531 12 350 6.4 16.1 0.00 0.00 0.00 44 1003.2
20260505170005 12 60 4.8 19.3 0.00 0.00 0.00 45 1003.4
20260505164549 12 317 8.0 16.1 0.00 0.00 0.00 46 1003.3
20260505163023 11 298 11.3 25.7 0.00 0.00 0.00 47 1003.4
20260505161527 11 17 14.5 27.4 0.00 0.00 0.00 52 1003.5
20260505153015 10 41 22.5 35.4 0.00 0.00 0.00 54 1003.9
20260505151549 10 19 19.3 38.6 0.00 0.00 0.00 58 1004.1
20260505124533 12 319 3.2 8.0 0.00 0.00 0.00 38 1003.3
20260505123010 12 338 3.2 9.7 0.00 0.00 0.00 38 1003.5
20260505121552 12 307 4.8 9.7 0.00 0.00 0.00 37 1003.4
20260505120031 12 317 3.2 9.7 0.00 0.00 0.00 37 1003.3
20260505114512 12 303 8.0 14.5 0.00 0.00 0.00 36 1003.4
20260505113108 12 321 6.4 9.7 0.00 0.00 0.00 36 1003.2
20260505111533 12 338 3.2 6.4 0.00 0.00 0.00 36 1003.2
20260505101512 12 271 0.0 4.8 0.00 0.00 0.00 35 1003.3
20260505100055 12 257 1.6 4.8 0.00 0.00 0.00 34 1003.2
20260505094541 13 257 3.2 6.4 0.00 0.00 0.00 32 1003.2
20260505093017 13 327 0.0 3.2 0.00 0.00 0.00 31 1003.0
20260505091505 13 17 4.8 14.5 0.00 0.00 0.00 30 1003.0
20260505090047 14 339 6.4 17.7 0.00 0.00 0.00 30 1003.1
20260505084530 14 337 11.3 17.7 0.00 0.00 0.00 30 1003.3
20260505083006 14 304 11.3 22.5 0.00 0.00 0.00 31 1003.4
20260505081555 14 317 11.3 25.7 0.00 0.00 0.00 31 1004.0
20260505080044 14 17 11.3 20.9 0.00 0.00 0.00 31 1004.2
20260505074506 15 325 6.4 17.7 0.00 0.00 0.00 30 1004.2
20260505073046 15 315 8.0 16.1 0.00 0.00 0.00 30 1004.0
20260505071528 15 5 9.7 20.9 0.00 0.00 0.00 29 1004.1
20260505070005 15 329 6.4 14.5 0.00 0.00 0.00 27 1004.0
20260505064540 16 278 11.3 20.9 0.00 0.00 0.00 27 1003.7
20260505063020 16 307 14.5 30.6 0.00 0.00 0.00 26 1003.5
20260505061555 16 313 14.5 25.7 0.00 0.00 0.00 26 1003.5
20260505061504 16 296 14.5 25.7 0.00 0.00 0.00 26 1003.5
20260505060039 16 307 11.3 22.5 0.00 0.00 0.00 25 1003.6
20260505054514 16 261 8.0 16.1 0.00 0.00 0.00 24 1003.8
20260505053053 17 303 12.9 20.9 0.00 0.00 0.00 23 1003.7
20260505051532 17 269 12.9 24.1 0.00 0.00 0.00 23 1003.6
20260505041528 17 315 9.7 16.1 0.00 0.00 0.00 22 1003.2
20260505040004 18 315 12.9 22.5 0.00 0.00 0.00 23 1003.2
20260505034544 18 313 8.0 16.1 0.00 0.00 0.00 22 1003.2
20260505033033 18 324 8.0 16.1 0.00 0.00 0.00 22 1003.0
20260505031504 18 291 6.4 17.7 0.00 0.00 0.00 22 1002.8
20260505030045 18 290 12.9 25.7 0.00 0.00 0.00 21 1002.7
20260505024532 19 329 14.5 33.8 0.00 0.00 0.00 21 1002.6
20260505023058 19 355 16.1 32.2 0.00 0.00 0.00 20 1002.5
20260505023004 19 323 16.1 32.2 0.00 0.00 0.00 20 1002.4
20260505021542 20 333 16.1 33.8 0.00 0.00 0.00 19 1002.4
20260505020026 20 303 16.1 29.0 0.00 0.00 0.00 18 1002.1
20260505014607 20 302 12.9 24.1 0.00 0.00 0.00 19 1002.1
20260505014501 20 355 11.3 24.1 0.00 0.00 0.00 19 1002.1
20260505013042 20 318 14.5 25.7 0.00 0.00 0.00 18 1001.9
20260505011519 21 305 19.3 30.6 0.00 0.00 0.00 18 1001.7
20260505010059 21 310 16.1 33.8 0.00 0.00 0.00 17 1001.7
20260505010004 21 312 19.3 33.8 0.00 0.00 0.00 17 1001.8
20260505004540 21 318 22.5 32.2 0.00 0.00 0.00 17 1001.9
20260505003020 21 286 14.5 29.0 0.00 0.00 0.00 16 1001.9
20260505001600 22 295 22.5 38.6 0.00 0.00 0.00 15 1002.0
20260505001502 22 26 24.1 38.6 0.00 0.00 0.00 15 1001.9
20260505000046 22 285 20.9 33.8 0.00 0.00 0.00 14 1001.8
20260504234525 22 309 22.5 38.6 0.00 0.00 0.00 13 1001.8
20260504233004 22 340 22.5 37.0 0.00 0.00 0.00 13 1002.3
20260504231543 22 317 20.9 33.8 0.00 0.00 0.00 12 1002.2
20260504230026 22 300 22.5 38.6 0.00 0.00 0.00 11 1002.3
20260504224506 22 257 19.3 38.6 0.00 0.00 0.00 12 1002.5
20260504223044 22 310 19.3 33.8 0.00 0.00 0.00 11 1002.4
20260504221522 22 141 27.4 41.8 0.00 0.00 0.00 11 1002.5
20260504220004 22 323 25.7 38.6 0.00 0.00 0.00 12 1002.6
20260504214551 22 321 27.4 41.8 0.00 0.00 0.00 12 1002.8
20260504213027 23 261 11.3 37.0 0.00 0.00 0.00 12 1002.9
20260504211510 23 311 17.7 32.2 0.00 0.00 0.00 13 1003.4
20260504210054 23 315 12.9 32.2 0.00 0.00 0.00 13 1003.5
20260504204530 23 319 8.0 22.5 0.00 0.00 0.00 15 1003.8
20260504203134 22 355 12.9 24.1 0.00 0.00 0.00 15 1004.3
20260504201537 22 52 16.1 35.4 0.00 0.00 0.00 16 1004.9